FENGYUN 1C DEB, 32440

Orbit data source: Space-Track

FENGYUN 1C DEB, 32440 is space debris in SSO originally from a launch on Mon, 10 May 1999 UTC launched from the Taiyaun Space Center, China (TSC). Fengyun 1C debris stems from the Chinese weather satellite Fengyun-1C, which was intentionally destroyed by a Chinese anti-satellite missile in 2007. This event dramatically increased the amount of space debris, with thousands of trackable fragments posing hazards to satellites and human spaceflight. The Fengyun 1C debris cloud has become a focal point in discussions about space sustainability and the need for international regulations to prevent the creation of new debris.

Loading next visibility...
Identifier
32440, 1999-025DBC
Orbit
SSO
Country
Flag of CNCN / PRC
Related business
Manufacturer
Unknown
Mission
Spacecraft
Bus & Motor
Unknown
Mass
Unknown
Launch date (UTC)
1999-05-10 (27 years ago)
Launch vehicle
Unknown
Launch site
Taiyaun Space Center, China (TSC)
Object type
Payload
Rocket body
Debris
Shape & HBR
Unknown shape, 0.1 m
Radar Cross Section
Small (<0.1 m²)

Expand to show TLE details & history
Last TLE update: 2 weeks ago

TLE from 2 weeks ago
0 FENGYUN 1C DEB
1 32440U 99025DBC 26225.78724725  .00001352  00000-0  12706-2 0  9996
2 32440  99.1367  71.3344 0318475 180.2460 179.8576 13.62677484636085
Epoch: 2026-08-13T18:53Z
TLE epoch observation values (Epoch: 2026-08-13T18:53:38.162Z)
Latitude
0.00001°
Longitude
-174.29643°
Altitude
1,264.649 km
Speed
7.107 km/s
True Right ascension
04h 45m 20s
True Declination
0° 00' 00"
Sunlit
Object was in daylight at epoch
Visualization orbit readout
Latitude
Unknown
Longitude
Unknown
Altitude
Unknown
Speed
Unknown
Apparent Right ascension
Unknown
Apparent Declination
Unknown
Sunlit
N/A
Visualization observer readout
Local Sidereal Time
11:07:32
Azimuth
Unknown
Elevation
Unknown
Doppler factor
Unknown
Orbital elements
Apogee altitude
1,258.944 km
Perigee altitude
787.514 km
Semi-major axis
7,401.366 km
Eccentricity
0.03185
Inclination
99.1367°
RAAN
71.3344°
Arg. of periapsis
180.246°
True anomaly
179.86632°
Mean anomaly
179.8576°
Eccentric anomaly
179.862°
Mean motion
3.40859 °/min
Orbital period
105.62 mins
BSTAR
0.0012706
Loading maneuver chart data...
Computing Atmospheric mass density...

Documentation

Showing up to 5 results
|